Regional Weather Roundup
Issued by NWS

Home | Current Version | Previous Version | Text Only | Print | Product List | Glossary Off
Versions: 1 2 3 4 5 6 7 8 9 10 11 12 13 14 15 16 17 18 19 20 21 22 23 24 25 26 27 28 29 30 31 32 33 34 35 36 37 38 39 40 41 42 43 44 45 46 47 48 49 50

708
ASUS45 KCYS 101610
RWRWY

WYOMING REGIONAL WEATHER ROUNDUP
NATIONAL WEATHER SERVICE CHEYENNE WY
900 AM MST WED FEB 10 2016

NOTE:  "FAIR" INDICATES FEW OR NO CLOUDS BELOW 12,000 FEET
WITH NO SIGNIFICANT WEATHER AND/OR OBSTRUCTIONS TO VISIBILITY.

WYZ001-101700-
YELLOWSTONE NATIONAL PARK

CITY           SKY/WX    TMP DP  RH WIND       PRES   REMARKS
LK YELLOWSTONE   N/A      9   7  92 CALM      30.38R
W YELLOWSTONE  NOT AVBL

$$
WYZ002>013-054>058-071-098>099-101700-
NORTHERN WYOMING

CITY           SKY/WX    TMP DP  RH WIND       PRES   REMARKS
JACKSON        FOG        3   3 100 CALM      30.42S VSB 1/2
CODY           FAIR      52  16  24 W13G20    30.11F
GREYBULL       FAIR      21  18  88 S3        30.14F
WORLAND        FAIR      23  20  88 W3        30.15R
SHERIDAN       MOSUNNY   48  18  29 NW3       30.00F
BUFFALO        FAIR      52  18  26 S5        30.06R
GILLETTE       FAIR      51  19  28 W9        30.02F
HULETT         FAIR      46  21  36 SW7       30.01S
NEWCASTLE      FAIR      48  18  29 NW15      30.02S

$$
WYZ014>020-022>026-101>103-101700-
CENTRAL WYOMING

CITY           SKY/WX    TMP DP  RH WIND       PRES   REMARKS
BIG PINEY      FAIR      14   7  73 E3        30.36S
PINEDALE       FAIR      14   7  73 W5        30.36S WCI   6
DUBOIS         FAIR      34   5  29 NW20G26   30.24S WCI  22
LANDER         FAIR      38  14  37 MISG      30.17S
RIVERTON       FAIR      27  21  78 CALM      30.18F
CASPER         LGT RAIN  39  19  44 SW24G38   30.13R WCI  28
DOUGLAS        FAIR      45  23  42 N7          N/A

$$
WYZ021-027>030-104>119-101700-
SOUTHERN WYOMING

CITY           SKY/WX    TMP DP  RH WIND       PRES   REMARKS
EVANSTON       FAIR      25  13  60 S7        30.40R WCI  17
ROCK SPRINGS   FAIR      30  15  53 W12       30.35S WCI  20
DIXON          FAIR       9   4  80 CALM      30.44R
RAWLINS        FAIR      37  16  42 W26G32    30.28S WCI  25
SARATOGA       FAIR      32  14  47 S14       30.32S WCI  22
LARAMIE        FAIR      41  14  33 S8        30.24S
CHEYENNE       FAIR      49  15  25 W24G36    30.15F
TORRINGTON     FAIR      49  21  33 NW13      30.06S
PINE BLUFFS    FAIR      48  19  32 W26G32    30.10S

$$




USA.gov is the U.S. government's official web portal to all federal, state and local government web resources and services.